TimeCDT,TemperatureF,Dew PointF,Humidity,Sea Level PressureIn,VisibilityMPH,Wind Direction,Wind SpeedMPH,Gust SpeedMPH,PrecipitationIn,Events,Conditions,WindDirDegrees,DateUTC
12:51 AM,48.0,30.9,52,29.97,10.0,North,10.4,-,N/A,,Clear,360,2013-04-01 05:51:00
1:51 AM,45.0,30.9,58,30.00,10.0,North,11.5,-,N/A,,Scattered Clouds,10,2013-04-01 06:51:00
2:51 AM,43.0,28.9,58,30.02,10.0,North,12.7,-,N/A,,Mostly Cloudy,10,2013-04-01 07:51:00
3:51 AM,42.1,27.0,55,30.03,10.0,North,10.4,20.7,0.00,,Overcast,360,2013-04-01 08:51:00
4:51 AM,41.0,27.0,57,30.06,10.0,North,10.4,-,N/A,,Mostly Cloudy,360,2013-04-01 09:51:00
5:51 AM,41.0,27.0,57,30.10,10.0,NNW,8.1,-,0.00,,Mostly Cloudy,340,2013-04-01 10:51:00
6:51 AM,39.0,23.0,53,30.13,10.0,North,10.4,-,N/A,,Mostly Cloudy,350,2013-04-01 11:51:00
7:51 AM,37.9,25.0,60,30.17,10.0,North,10.4,-,N/A,,Overcast,10,2013-04-01 12:51:00
8:51 AM,39.0,24.1,55,30.19,10.0,North,11.5,-,N/A,,Scattered Clouds,360,2013-04-01 13:51:00
9:51 AM,41.0,25.0,53,30.21,10.0,NW,12.7,-,N/A,,Mostly Cloudy,310,2013-04-01 14:51:00
10:51 AM,44.1,21.9,42,30.21,10.0,NNW,15.0,19.6,N/A,,Scattered Clouds,330,2013-04-01 15:51:00
11:51 AM,45.0,23.0,42,30.22,10.0,NNW,8.1,16.1,N/A,,Scattered Clouds,340,2013-04-01 16:51:00
12:51 PM,46.0,21.9,39,30.22,10.0,NNW,8.1,16.1,N/A,,Scattered Clouds,340,2013-04-01 17:51:00
1:51 PM,48.0,23.0,37,30.21,10.0,NW,10.4,17.3,N/A,,Scattered Clouds,310,2013-04-01 18:51:00
2:51 PM,48.9,19.9,32,30.21,10.0,NW,12.7,19.6,N/A,,Scattered Clouds,310,2013-04-01 19:51:00
3:51 PM,48.9,18.0,29,30.21,10.0,NW,12.7,18.4,N/A,,Scattered Clouds,320,2013-04-01 20:51:00
4:51 PM,48.0,18.0,30,30.22,10.0,WNW,9.2,23.0,N/A,,Scattered Clouds,300,2013-04-01 21:51:00
5:51 PM,46.9,16.0,29,30.21,10.0,NNW,13.8,-,N/A,,Scattered Clouds,340,2013-04-01 22:51:00
6:51 PM,45.0,17.1,33,30.21,10.0,North,6.9,-,N/A,,Scattered Clouds,360,2013-04-01 23:51:00
7:51 PM,42.1,19.0,40,30.22,10.0,NNW,6.9,-,N/A,,Scattered Clouds,340,2013-04-02 00:51:00
8:51 PM,41.0,18.0,40,30.23,10.0,NNW,6.9,-,N/A,,Partly Cloudy,340,2013-04-02 01:51:00
9:51 PM,39.9,19.0,43,30.24,10.0,NNW,3.5,-,N/A,,Clear,340,2013-04-02 02:51:00
10:51 PM,39.9,19.0,43,30.25,10.0,NNW,3.5,-,N/A,,Clear,340,2013-04-02 03:51:00
11:51 PM,37.0,19.0,48,30.27,10.0,North,5.8,-,N/A,,Clear,350,2013-04-02 04:51:00